Location: Gandikunta
(16.3784°N, 80.8378°E)
Time: 05:19:35
(UTC+00:00)

Cosmos 1833 Rocket - Pass Details

Date: 19 May 2025
Orbit: 831 x 839 km, 71.0° (Epoch: 13 June)

Event Time Altitude Azimuth Distance (km) Brightness Sun altitude
Rises 15:07:40 0° 207° (SSW) 3,373 5.8 -27.8°
Reaches altitude 10° 15:10:09 10° 211° (SSW) 2,441 5.1 -28.3°
Maximum altitude 15:15:36 53° 288° (WNW) 1,019 3.3 -29.4°
Drops below altitude 10° 15:21:04 10° 4° (N) 2,447 5.4 -30.5°
Sets 15:23:34 0° 9° (N) 3,383 6.2 -31.0°
